FW6531 Weather Reports


Display with metric or nautical units.
time (UTC)temp
F
wind
direction
speed
MPH
gust
MPH
rain 1hr
in
rain 24hr
in
rain mn
in
humidity
%
barometer
mb
20260506204542 52 176 6.0 12.0 0.04 0.09 0.09 92 1005.4
20260506204040 52 221 6.0 15.0 0.05 0.09 0.09 92 1005.6
20260506203538 52 186 6.0 17.0 0.06 0.09 0.09 92 1005.7
20260506203041 52 188 7.0 17.0 0.05 0.08 0.08 92 1005.5
20260506202537 52 180 6.0 16.0 0.05 0.08 0.08 92 1005.5
20260506202038 52 155 5.0 11.0 0.06 0.08 0.08 92 1005.4
20260506201540 53 193 4.0 13.0 0.07 0.08 0.08 92 1005.5
20260506201035 53 159 7.0 13.0 0.06 0.06 0.06 92 1006.0
20260506200539 53 90 6.0 10.0 0.06 0.06 0.06 92 1005.8
20260506200040 53 178 5.0 12.0 0.06 0.06 0.06 91 1005.8
20260506195536 53 208 5.0 12.0 0.06 0.06 0.06 92 1006.1
20260506195034 53 147 6.0 14.0 0.06 0.06 0.06 92 1006.1
20260506194535 53 150 5.0 15.0 0.05 0.05 0.05 92 1006.2
20260506194034 53 153 4.0 13.0 0.04 0.04 0.04 91 1006.3
20260506193534 53 137 6.0 13.0 0.03 0.03 0.03 91 1006.3
20260506193034 53 182 5.0 12.0 0.03 0.03 0.03 91 1006.2
20260506192533 52 171 2.0 12.0 0.03 0.03 0.03 90 1006.3
20260506192034 52 169 3.0 12.0 0.02 0.02 0.02 90 1006.1
20260506191534 52 222 4.0 13.0 0.01 0.01 0.01 89 1006.3
20260506191034 52 189 4.0 13.0 0.00 0.00 0.00 89 1006.3
20260506190533 52 234 4.0 15.0 0.00 0.00 0.00 89 1006.3
20260506190037 52 210 8.0 18.0 0.00 0.00 0.00 89 1005.9
20260506185533 52 190 8.0 18.0 0.00 0.00 0.00 88 1005.7
20260506185031 52 111 6.0 14.0 0.00 0.00 0.00 88 1005.7
20260506184538 52 248 8.0 19.0 0.00 0.00 0.00 88 1005.5
20260506184032 52 167 7.0 19.0 0.00 0.00 0.00 88 1005.6
20260506183533 52 159 8.0 19.0 0.00 0.00 0.00 87 1005.7
20260506183029 52 141 5.0 16.0 0.00 0.00 0.00 87 1005.8
20260506182529 52 242 6.0 13.0 0.00 0.00 0.00 87 1005.8
20260506182028 52 171 5.0 18.0 0.00 0.00 0.00 87 1005.8
20260506181528 52 187 6.0 18.0 0.00 0.00 0.00 87 1006.0
20260506181029 52 178 8.0 14.0 0.00 0.00 0.00 86 1006.1
20260506180529 52 165 4.0 16.0 0.00 0.00 0.00 86 1006.0
20260506180029 52 163 7.0 16.0 0.00 0.00 0.00 86 1006.0
20260506175526 52 192 4.0 15.0 0.00 0.00 0.00 86 1006.1
20260506175026 52 183 7.0 15.0 0.00 0.00 0.00 86 1006.1
20260506174526 52 209 5.0 15.0 0.00 0.00 0.00 86 1006.1
20260506174028 52 161 5.0 15.0 0.00 0.00 0.00 86 1006.2
20260506173525 52 144 6.0 15.0 0.00 0.00 0.00 87 1006.3
20260506173031 52 232 5.0 15.0 0.00 0.00 0.00 86 1006.4
20260506172523 52 145 6.0 15.0 0.00 0.00 0.00 86 1006.6
20260506172023 52 113 7.0 15.0 0.00 0.00 0.00 86 1006.6
20260506171526 52 156 5.0 15.0 0.00 0.00 0.00 86 1006.6
20260506171024 53 157 5.0 15.0 0.00 0.00 0.00 86 1006.7
20260506170522 53 144 6.0 13.0 0.00 0.00 0.00 85 1006.8
20260506170021 53 175 6.0 15.0 0.00 0.00 0.00 85 1007.0
20260506165520 53 153 7.0 16.0 0.00 0.00 0.00 85 1007.0
20260506165020 54 184 9.0 18.0 0.00 0.00 0.00 84 1007.0
20260506164520 54 92 7.0 15.0 0.00 0.00 0.00 84 1007.3
20260506164019 54 139 7.0 19.0 0.00 0.00 0.00 84 1007.3
20260506163521 54 155 8.0 15.0 0.00 0.00 0.00 84 1007.5
20260506163027 55 192 7.0 18.0 0.00 0.00 0.00 84 1007.5
20260506162521 55 173 5.0 18.0 0.00 0.00 0.00 84 1007.8
20260506162020 55 163 8.0 21.0 0.00 0.00 0.00 84 1007.9
20260506161519 55 192 6.0 21.0 0.00 0.00 0.00 84 1008.1
20260506161018 55 165 9.0 17.0 0.00 0.00 0.00 84 1008.0
20260506160519 55 151 6.0 18.0 0.00 0.00 0.00 84 1008.1
20260506160017 55 175 8.0 18.0 0.00 0.00 0.00 84 1008.3
20260506155517 55 172 4.0 20.0 0.00 0.00 0.00 85 1008.4
20260506155017 55 161 4.0 18.0 0.00 0.00 0.00 85 1008.4
20260506154517 55 164 8.0 18.0 0.00 0.00 0.00 85 1008.2
20260506154018 55 143 7.0 15.0 0.00 0.00 0.00 86 1008.3
20260506153516 55 184 9.0 20.0 0.00 0.00 0.00 85 1008.3
20260506153015 54 206 8.0 20.0 0.00 0.00 0.00 85 1008.5
20260506152515 54 184 6.0 19.0 0.00 0.00 0.00 85 1008.5
20260506152015 54 184 8.0 19.0 0.00 0.00 0.00 85 1008.4
20260506151617 55 221 7.0 19.0 0.00 0.00 0.00 84 1008.2
20260506151018 55 212 5.0 19.0 0.00 0.00 0.00 84 1008.5
20260506150514 55 177 8.0 21.0 0.00 0.00 0.00 83 1008.3
20260506150014 56 160 9.0 23.0 0.00 0.00 0.00 83 1008.1
20260506145514 56 186 8.0 23.0 0.00 0.00 0.00 84 1008.2
20260506145013 56 190 6.0 16.0 0.00 0.00 0.00 84 1007.9
20260506144512 55 194 7.0 20.0 0.00 0.00 0.00 84 1008.0
20260506144011 55 178 10.0 20.0 0.00 0.00 0.00 84 1007.7
20260506143511 55 155 8.0 18.0 0.00 0.00 0.00 84 1007.9
20260506143021 55 181 9.0 15.0 0.00 0.00 0.00 85 1008.0
20260506142514 55 134 7.0 14.0 0.00 0.00 0.00 85 1008.2
20260506142010 55 157 5.0 15.0 0.00 0.00 0.00 85 1008.2
20260506141509 55 215 6.0 17.0 0.00 0.00 0.00 85 1008.3
20260506141014 55 134 5.0 15.0 0.00 0.00 0.00 86 1008.4
20260506140510 54 182 7.0 15.0 0.00 0.00 0.00 86 1008.5
20260506140009 54 212 7.0 15.0 0.00 0.00 0.00 86 1008.6
20260506135509 54 145 8.0 12.0 0.00 0.00 0.00 86 1008.6
20260506135009 54 213 5.0 13.0 0.00 0.00 0.00 86 1008.5
20260506134508 54 244 8.0 13.0 0.00 0.00 0.00 86 1008.5
20260506134011 54 164 5.0 12.0 0.00 0.00 0.00 86 1008.5
20260506133511 54 273 4.0 13.0 0.00 0.00 0.00 85 1008.5
20260506133007 54 155 5.0 14.0 0.00 0.00 0.00 85 1008.5
20260506132513 54 135 5.0 15.0 0.00 0.00 0.00 86 1008.5
20260506132007 54 176 6.0 15.0 0.00 0.00 0.00 85 1008.5
20260506131507 54 250 3.0 15.0 0.00 0.00 0.00 85 1008.4
20260506131007 54 221 5.0 14.0 0.00 0.00 0.00 84 1008.4
20260506130507 54 167 5.0 14.0 0.00 0.00 0.00 84 1008.4
20260506130007 55 172 3.0 14.0 0.00 0.00 0.00 84 1008.5
20260506125506 55 233 4.0 14.0 0.00 0.00 0.00 84 1008.3
20260506125009 55 219 6.0 17.0 0.00 0.00 0.00 84 1008.3
20260506124505 55 288 3.0 17.0 0.00 0.00 0.00 85 1008.4
20260506124005 55 211 6.0 15.0 0.00 0.00 0.00 84 1008.4
20260506123505 55 190 4.0 13.0 0.00 0.00 0.00 85 1008.4
20260506123004 54 187 2.0 13.0 0.00 0.00 0.00 85 1008.6
20260506122504 54 209 5.0 9.0 0.00 0.00 0.00 86 1008.6
20260506122003 54 136 5.0 9.0 0.00 0.00 0.00 86 1008.6
20260506121502 54 167 4.0 11.0 0.00 0.00 0.00 86 1008.6
20260506121002 54 205 5.0 10.0 0.00 0.00 0.00 86 1008.7
20260506120502 54 186 6.0 11.0 0.00 0.00 0.00 86 1008.5
20260506120109 54 217 5.0 10.0 0.00 0.00 0.00 86 1008.6
20260506115559 54 159 5.0 10.0 0.00 0.00 0.00 86 1008.8
20260506115058 54 275 4.0 9.0 0.00 0.00 0.00 86 1008.8
20260506114558 54 141 3.0 9.0 0.00 0.00 0.00 86 1008.9
20260506114058 54 217 2.0 7.0 0.00 0.00 0.00 87 1009.0
20260506113558 54 228 3.0 6.0 0.00 0.00 0.00 87 1009.0
20260506113059 53 184 1.0 7.0 0.00 0.00 0.00 88 1008.9
20260506112557 53 180 3.0 6.0 0.00 0.00 0.00 88 1008.8
20260506112057 53 196 2.0 6.0 0.00 0.00 0.00 88 1009.0
20260506111557 53 200 2.0 8.0 0.00 0.00 0.00 89 1009.0
20260506111054 53 221 2.0 8.0 0.00 0.00 0.00 88 1008.8
20260506110555 52 192 4.0 12.0 0.00 0.00 0.00 89 1008.8
20260506110100 52 201 4.0 9.0 0.00 0.00 0.00 89 1008.9
20260506105554 52 238 4.0 10.0 0.00 0.00 0.00 88 1008.9
20260506105053 52 219 5.0 9.0 0.00 0.00 0.00 88 1008.7
20260506104556 52 152 4.0 10.0 0.00 0.00 0.00 88 1008.9
20260506104051 52 207 4.0 10.0 0.00 0.00 0.00 89 1008.7
20260506103551 51 189 4.0 11.0 0.00 0.00 0.00 89 1008.6
20260506103057 51 181 4.0 10.0 0.00 0.00 0.00 88 1008.5
20260506102550 51 246 4.0 12.0 0.00 0.00 0.00 88 1008.7
20260506102050 51 205 5.0 13.0 0.00 0.00 0.00 89 1008.7
20260506101558 51 223 5.0 13.0 0.00 0.00 0.00 89 1008.4
20260506101048 51 178 5.0 13.0 0.00 0.00 0.00 89 1008.5
20260506100547 51 173 4.0 13.0 0.00 0.00 0.00 89 1008.5
20260506095545 50 197 4.0 12.0 0.00 0.00 0.00 89 1008.5
20260506095045 50 202 5.0 12.0 0.00 0.00 0.00 88 1008.4
20260506094543 50 230 4.0 13.0 0.00 0.00 0.00 88 1008.3
20260506094040 50 188 4.0 11.0 0.00 0.00 0.00 88 1008.2
20260506093539 50 207 4.0 11.0 0.00 0.00 0.00 88 1008.4
20260506093045 50 229 4.0 12.0 0.00 0.00 0.00 87 1008.4
20260506092539 51 167 4.0 13.0 0.00 0.00 0.00 87 1008.3
20260506092039 51 209 5.0 13.0 0.00 0.00 0.00 87 1008.3
20260506091540 51 198 6.0 13.0 0.00 0.00 0.00 87 1008.3
20260506091041 51 174 6.0 13.0 0.00 0.00 0.00 86 1008.3
20260506090537 51 178 7.0 16.0 0.00 0.00 0.00 86 1008.3
20260506090036 51 239 8.0 16.0 0.00 0.00 0.00 86 1008.3
20260506085535 52 204 4.0 19.0 0.00 0.00 0.00 86 1008.1
20260506085035 52 175 7.0 16.0 0.00 0.00 0.00 86 1008.1
20260506084545 52 227 7.0 17.0 0.00 0.00 0.00 86 1008.2
20260506084035 52 219 5.0 17.0 0.00 0.00 0.00 86 1008.0
20260506083535 52 169 8.0 15.0 0.00 0.00 0.00 86 1008.0
20260506083035 52 246 7.0 11.0 0.00 0.00 0.00 86 1008.0
20260506082534 52 157 8.0 15.0 0.00 0.00 0.00 85 1008.0
20260506082034 52 189 6.0 15.0 0.00 0.00 0.00 85 1008.0
20260506081541 52 158 6.0 16.0 0.00 0.00 0.00 85 1008.2
20260506081034 52 156 6.0 16.0 0.00 0.00 0.00 85 1008.1
20260506080533 52 180 7.0 16.0 0.00 0.00 0.00 85 1008.0
20260506073040 51 187 6.0 15.0 0.00 0.00 0.00 84 1007.9
20260506072531 51 188 7.0 18.0 0.00 0.00 0.00 85 1007.9
20260506072031 51 153 7.0 18.0 0.00 0.00 0.00 85 1007.8
20260506071530 51 214 6.0 15.0 0.00 0.00 0.00 85 1007.8
20260506071029 51 182 5.0 15.0 0.00 0.00 0.00 84 1007.8
20260506070529 51 197 7.0 15.0 0.00 0.00 0.00 84 1007.7
20260506062022 52 178 7.0 15.0 0.00 0.00 0.00 83 1007.4
20260506061522 52 193 9.0 16.0 0.00 0.00 0.00 84 1007.4
20260506061021 51 213 5.0 14.0 0.00 0.00 0.00 83 1007.5
20260506060520 51 176 6.0 11.0 0.00 0.00 0.00 83 1007.7
20260506051013 52 273 6.0 15.0 0.00 0.00 0.00 82 1007.4
20260506050513 52 136 8.0 16.0 0.00 0.00 0.00 82 1007.6
20260506045011 52 200 7.0 14.0 0.00 0.00 0.00 82 1007.7
20260506044524 52 193 5.0 12.0 0.00 0.00 0.00 81 1007.7
20260506044009 52 173 5.0 10.0 0.00 0.00 0.00 81 1007.7
20260506043509 53 202 6.0 18.0 0.00 0.00 0.00 81 1007.7
20260506043008 53 165 6.0 18.0 0.00 0.00 0.00 80 1007.8
20260506042506 53 176 6.0 19.0 0.00 0.00 0.00 80 1007.7
20260506042007 53 190 6.0 19.0 0.00 0.00 0.00 80 1007.7
20260506041504 53 194 7.0 19.0 0.00 0.00 0.00 80 1007.6
20260506041007 53 201 6.0 12.0 0.00 0.00 0.00 80 1007.7
20260506040502 53 179 7.0 15.0 0.00 0.00 0.00 80 1007.2
20260506040001 54 166 8.0 18.0 0.00 0.00 0.00 80 1007.4
20260506035501 53 138 9.0 18.0 0.00 0.00 0.00 80 1007.3
20260506035001 54 159 5.0 17.0 0.00 0.00 0.00 80 1007.5
20260506034502 54 187 7.0 17.0 0.00 0.00 0.00 80 1007.4
20260506034100 54 254 5.0 14.0 0.00 0.00 0.00 80 1007.3
20260506034001 54 146 6.0 14.0 0.00 0.00 0.00 80 1007.2
20260506033501 54 160 8.0 14.0 0.00 0.00 0.00 81 1007.2
20260506033000 54 169 6.0 12.0 0.00 0.00 0.00 81 1007.1
20260506032602 53 174 6.0 12.0 0.00 0.00 0.00 81 1007.1
20260506032502 53 200 6.0 12.0 0.00 0.00 0.00 81 1007.1
20260506032100 53 130 6.0 11.0 0.00 0.00 0.00 80 1007.1
20260506031606 53 157 6.0 11.0 0.00 0.00 0.00 80 1007.2
20260506031100 54 157 6.0 11.0 0.00 0.00 0.00 80 1007.3
20260506030559 54 138 4.0 10.0 0.00 0.00 0.00 79 1007.1
20260506030100 54 211 4.0 11.0 0.00 0.00 0.00 79 1007.2
20260506025558 54 193 6.0 11.0 0.00 0.00 0.00 78 1007.3
20260506025201 54 204 5.0 9.0 0.00 0.00 0.00 78 1007.3
20260506024559 54 180 4.0 11.0 0.00 0.00 0.00 77 1007.3
20260506024058 55 165 4.0 11.0 0.00 0.00 0.00 76 1007.3
20260506023557 55 187 6.0 12.0 0.00 0.00 0.00 76 1007.3
20260506023111 55 191 4.0 13.0 0.00 0.00 0.00 76 1007.3
20260506022557 56 182 6.0 16.0 0.00 0.00 0.00 75 1007.3
20260506022159 56 192 7.0 16.0 0.00 0.00 0.00 75 1007.2
20260506021557 56 194 5.0 11.0 0.00 0.00 0.00 75 1007.2
20260506021057 56 164 5.0 11.0 0.00 0.00 0.00 75 1007.4
20260506020556 56 188 6.0 11.0 0.00 0.00 0.00 74 1007.5
20260506020057 56 212 4.0 12.0 0.00 0.00 0.00 74 1007.4
20260506015555 57 219 5.0 11.0 0.00 0.00 0.00 73 1007.6
20260506015056 57 177 5.0 14.0 0.00 0.00 0.00 73 1007.4
20260506014556 57 234 5.0 14.0 0.00 0.00 0.00 73 1007.5
20260506014055 57 213 5.0 10.0 0.00 0.00 0.00 73 1007.5
20260506013555 58 159 4.0 13.0 0.00 0.00 0.00 72 1007.6
20260506013058 58 186 5.0 13.0 0.00 0.00 0.00 72 1007.4
20260506012556 58 202 3.0 11.0 0.00 0.00 0.00 72 1007.4
20260506012055 58 190 5.0 13.0 0.00 0.00 0.00 71 1007.4
20260506011617 59 185 5.0 13.0 0.00 0.00 0.00 71 1007.2
20260506011054 59 163 5.0 10.0 0.00 0.00 0.00 71 1007.0
20260506010555 59 196 6.0 13.0 0.00 0.00 0.00 70 1007.0
20260506005554 59 153 4.0 14.0 0.00 0.00 0.00 70 1007.0
20260506005053 59 187 8.0 15.0 0.00 0.00 0.00 70 1007.2
20260506004621 59 190 6.0 15.0 0.00 0.00 0.00 70 1007.0
20260506004053 59 213 6.0 15.0 0.00 0.00 0.00 71 1007.3
20260506003553 59 160 5.0 15.0 0.00 0.00 0.00 71 1006.8
20260506003153 59 228 6.0 15.0 0.00 0.00 0.00 71 1006.4
20260506002552 59 131 7.0 15.0 0.00 0.00 0.00 71 1006.6
20260506002051 59 157 6.0 12.0 0.00 0.00 0.00 71 1006.6
20260506001556 59 192 5.0 12.0 0.00 0.00 0.00 71 1006.3
20260506001052 59 165 6.0 12.0 0.00 0.00 0.00 71 1006.1
20260506000552 59 202 7.0 12.0 0.00 0.00 0.00 71 1006.1
20260506000052 60 159 5.0 11.0 0.00 0.00 0.00 70 1006.0
20260505235550 60 146 4.0 13.0 0.00 0.00 0.00 69 1005.9
20260505235051 61 159 5.0 13.0 0.00 0.00 0.00 71 1005.8
20260505234614 61 156 2.0 7.0 0.00 0.00 0.00 71 1006.0
20260505234051 61 130 3.0 7.0 0.00 0.00 0.00 71 1006.0
20260505233550 60 217 3.0 9.0 0.00 0.00 0.00 71 1006.1
20260505233050 60 159 3.0 10.0 0.00 0.00 0.00 72 1006.1
20260505232550 59 222 4.0 13.0 0.00 0.00 0.00 72 1005.9
20260505232050 59 167 4.0 14.0 0.00 0.00 0.00 72 1005.8
20260505231550 58 214 7.0 17.0 0.00 0.00 0.00 73 1006.0
20260505231053 58 284 8.0 23.0 0.00 0.00 0.00 73 1006.0
20260505230549 57 182 8.0 23.0 0.00 0.00 0.00 74 1006.1
20260505230049 57 141 7.0 18.0 0.00 0.00 0.00 74 1004.6
20260505225548 57 196 9.0 22.0 0.00 0.00 0.00 74 1004.6
20260505225047 57 264 10.0 22.0 0.00 0.00 0.00 73 1004.3
20260505224549 57 179 9.0 20.0 0.00 0.00 0.00 74 1004.1
20260505224048 57 221 10.0 18.0 0.00 0.00 0.00 74 1004.2
20260505223547 57 254 8.0 20.0 0.00 0.00 0.00 74 1004.1
20260505223049 57 174 10.0 22.0 0.00 0.00 0.00 74 1004.1
20260505222648 57 214 5.0 22.0 0.00 0.00 0.00 74 1004.0
20260505222048 57 168 9.0 21.0 0.00 0.00 0.00 74 1003.9
20260505221547 57 232 7.0 16.0 0.00 0.00 0.00 74 1003.8
20260505221047 57 240 8.0 22.0 0.00 0.00 0.00 74 1003.6
20260505220546 57 176 13.0 22.0 0.00 0.00 0.00 74 1003.7
20260505220059 57 184 8.0 22.0 0.00 0.00 0.00 75 1003.7
20260505215546 56 227 7.0 22.0 0.00 0.00 0.00 75 1003.7
20260505215046 56 106 5.0 21.0 0.00 0.00 0.00 75 1003.7
20260505214546 56 152 6.0 23.0 0.00 0.00 0.00 75 1003.6
20260505214046 56 211 9.0 24.0 0.00 0.00 0.00 75 1003.7
20260505213544 56 163 8.0 20.0 0.00 0.00 0.00 75 1003.5
20260505213045 56 222 8.0 18.0 0.00 0.00 0.00 75 1003.6
20260505212547 56 98 7.0 19.0 0.00 0.00 0.00 75 1003.4
20260505212045 56 213 7.0 19.0 0.00 0.00 0.00 74 1003.3
20260505211550 57 223 10.0 18.0 0.00 0.00 0.00 74 1003.3
20260505211045 57 166 8.0 22.0 0.00 0.00 0.00 74 1003.4
20260505210545 58 177 10.0 19.0 0.00 0.00 0.00 74 1003.4
20260505210043 58 201 8.0 24.0 0.00 0.00 0.00 73 1003.4
20260505205543 58 196 11.0 26.0 0.00 0.00 0.00 73 1003.4
20260505205043 58 191 9.0 26.0 0.00 0.00 0.00 73 1003.2